www.pogodaiklimat.ru

Погода и климат >> Архив погоды >> Эстония >> Таллин


АРХИВ ПОГОДЫ в Таллине

Время (UTC), дата Ветер
(напр.,м/с)
 
Видим.   Явления Облачность Т
(С)
Тd
(С)
f
(%)
Тe
(С)
Тes
(С)
Комфортность P
(гПа)
Po
(гПа)
Тmin
(С)
Tmax
(С)
R
(мм)
R24
(мм)
S
(см)
07 10.09 ЮВ 4 35 км н/о +19.3 +13.8 70 +21 +21 комфорт 1018.8 1014.9
08 10.09 ЮВ 4 35 км н/о +21.3 +13.9 63 +24 +24 комфорт 1018.8 1014.8
09 10.09 ЮВ 4 35 км 6/0
[]
+23.3 +15.0 60 +26 +30 жарко 1018.6 1014.7
10 10.09 ЮВ 5 35 км н/о +24.9 +11.7 44 +26 +26 жарко 1018.3 1014.5
11 10.09 ЮВ 4 35 км н/о +26.3 +10.9 38 +27 +27 жарко 1018.2 1014.3
12 10.09 ЮВ 4 35 км 8/4
[Ac As Ci ing]
+25.3 +15.0 53 +26 +30 жарко 1017.9 1014.1
13 10.09 ЮВ 4 35 км н/о +25.7 +10.0 37 +26 +26 жарко 1017.5 1013.7
14 10.09 ЮВ 4 35 км н/о +25.1 +9.3 37 +26 +26 жарко 1017.5 1013.6
15 10.09 ЮВ 3 35 км 8/1
[]
+23.9 +15.0 57 +25 +26 комфорт 1017.5 1013.7
16 10.09 ЮВ 3 35 км н/о +22.4 +10.5 47 +24 +24 комфорт 1017.5 1013.6
17 10.09 ЮВ 3 35 км н/о +21.4 +10.6 50 +23 +23 комфорт 1017.6 1013.7
18 10.09 Ю 4 35 км 9/1 600 м
[Cb cap As op Cs]
+21.1 +17.2 78 +22 +22 комфорт 1018.2 1014.3 +17.2 +26.4
19 10.09 Ю 5 35 км н/о +20.7 +9.2 48 +22 +22 комфорт 1018.0 1014.1
20 10.09 Ю 2 35 км н/о +18.9 +10.0 56 +20 +20 тепло 1017.6 1013.7
21 10.09 ЮВ 3 35 км 3/0
[]
+18.1 +18.0 99 +18 +18 тепло 1017.7 1013.7
22 10.09 ЮВ 3 35 км н/о +17.2 +9.8 62 +17 +17 тепло 1017.6 1013.6
23 10.09 ЮВ 3 35 км н/о +16.1 +10.0 67 +16 +16 тепло 1017.4 1013.5
00 11.09 ЮВ 3 35 км 1/1 1500 м
[Ac und Cs]
+15.6 +15.4 99 +15 +15 тепло 1017.1 1013.2 +15.4 +26.2
01 11.09 ЮВ 3 35 км н/о +14.5 +10.1 75 +14 +14 тепло 1017.0 1013.0
02 11.09 Ю 4 35 км н/о +14.4 +10.1 75 +13 +13 тепло 1016.7 1012.7
03 11.09 Ю 4 35 км 4/4 1000 м
[Ac trans Cs]
+14.0 +14.0 100 +13 +13 тепло 1016.3 1012.3
04 11.09 ЮВ 5 35 км н/о +13.8 +10.1 78 +12 +12 тепло 1015.9 1011.9
05 11.09 Ю 5 35 км н/о +14.8 +10.2 74 +13 +13 тепло 1015.5 1011.5
06 11.09 Ю 5 35 км 9/9
[Ac cuf Ci sp]
+15.3 +13.6 90 +14 +14 тепло 1015.1 1001.1 +13.6 +21.3
07 11.09 Ю 5 35 км н/о +15.8 +9.8 67 +15 +15 тепло 1014.8 1010.8
08 11.09 Ю 5 35 км н/о +15.4 +11.0 75 +14 +14 тепло 1014.8 1010.9
09 11.09 Ю 5 19 км в посл. час ливневой дождь 10/10 300 м
[Frnb As trans]
+13.5 +13.5 100 +11 +13 по сезону 1015.2 1011.2
10 11.09 Ю 5 35 км н/о +13.7 +12.6 93 +12 +12 по сезону 1015.0 1011.0
11 11.09 Ю 4 35 км н/о +14.6 +13.1 91 +13 +13 по сезону 1015.1 1011.1
12 11.09 Ю 4 35 км {ливн. осадки} 10/10 200 м
[Frnb As trans]
+15.4 +13.3 87 +14 +16 по сезону 1014.9 1010.9
13 11.09 Ю 5 35 км н/о +16.1 +13.9 87 +15 +15 тепло 1014.7 1010.7
14 11.09 Ю 5 35 км н/о +16.5 +14.4 87 +16 +16 тепло 1014.6 1010.7
15 11.09 Ю 5 35 км слаб. ливневой дождь 9/9 200 м
[Cb cap Cc]
+16.2 +13.3 83 +15 +15 тепло 1014.5 1010.5
16 11.09 Ю 4 35 км н/о +16.1 +15.2 94 +15 +15 тепло 1014.7 1010.7 0.1
17 11.09 Ю 4 35 км н/о +16.2 +15.1 93 +15 +15 тепло 1014.7 1010.8
18 11.09 ЮЗ 4 35 км {ливн. осадки} 10/10 300 м
[Frnb As trans Ci sp]
+16.2 +13.3 83 +15 +15 тепло 1015.2 1011.2 +13.3 +16.6 0.1
19 11.09 ЮЗ 4 35 км н/о +16.2 +14.8 91 +15 +15 тепло 1015.5 1011.5
20 11.09 ЮЗ 5 13 км н/о +15.9 +14.3 90 +15 +15 тепло 1015.9 1012.0 0.3
21 11.09 ЮЗ 4 35 км {ливн. осадки} 10/10 300 м
[St As trans Cs]
+15.5 +13.3 87 +14 +14 тепло 1016.5 1012.5 0.3
22 11.09 ЮЗ 4 35 км н/о +14.6 +12.9 90 +13 +13 тепло 1016.8 1012.8
23 11.09 Ю 4 20 км н/о +14.3 +12.9 91 +13 +13 тепло 1016.6 1012.6
00 12.09 Ю 4 35 км {ливн. осадки} 6/6 1500 м
[Ac und Cs]
+14.2 +14.1 99 +13 +13 тепло 1016.4 1012.4
01 12.09 Ю 4 35 км н/о +14.7 +12.5 87 +13 +13 тепло 1016.2 1012.2
02 12.09 Ю 4 35 км н/о +14.1 +12.6 91 +13 +13 тепло 1015.8 1011.8
03 12.09 Ю 4 35 км 9/6 1500 м
[Ac und Cs]
+13.8 +13.8 100 +12 +12 тепло 1015.6 1011.6
04 12.09 Ю 4 35 км н/о +13.8 +12.2 90 +12 +12 тепло 1015.2 1011.2
05 12.09 Ю 4 35 км н/о +14.3 +12.2 87 +13 +13 тепло 1014.7 1010.7
06 12.09 Ю 6 35 км 9/3 600 м
[St Ac trans Ci sp]
+15.6 +13.6 88 +14 +14 тепло 1014.6 1010.6 +13.6 +16.4
07 12.09 Ю 5 16 км н/о +14.6 +12.7 88 +13 +13 тепло 1014.4 1010.4
08 12.09 н/о
09 12.09 Ю 5
{10}
4200 м ливневой дождь 10/10 300 м
[Cb cap As trans Ci sp]
+14.1 +13.6 97 +12 +12 по сезону 1013.7 1009.7 +13.6 +15.7 0.5
10 12.09 Ю 4 29 км н/о +14.7 +13.8 94 +13 +13 по сезону 1013.9 1009.9 0.2
11 12.09 ЮЗ 4 35 км н/о +16.9 +14.2 84 +16 +16 тепло 1013.8 1009.8
12 12.09 ЮЗ 6 35 км {ливн. осадки} 6/6 600 м
[Cb cap As op Ci ing]
+18.1 +13.6 75 +18 +18 тепло 1013.8 1009.9 0.2
13 12.09 ЮЗ 5 35 км н/о +17.5 +11.8 69 +17 +17 тепло 1014.0 1010.0
14 12.09 З 6 35 км н/о +17.7 +11.0 65 +17 +17 тепло 1014.2 1010.3
15 12.09 ЮЗ 5 35 км 5/5 600 м
[Cb cap As op Cs]
+17.0 +13.6 80 +16 +16 тепло 1014.4 1010.5
16 12.09 ЮЗ 6 35 км н/о +16.1 +11.0 72 +15 +15 тепло 1014.9 1010.9
17 12.09 ЮЗ 4 35 км н/о +15.0 +10.9 76 +14 +14 тепло 1015.0 1011.1
18 12.09 ЮЗ 3 35 км 3/3 300 м
[St As op]
+14.4 +14.1 98 1015.3
19 12.09 ЮЗ 3 35 км н/о +13.8 +11.4 85 +13 +13 тепло 1014.9 1010.9
20 12.09 Ю 3 35 км н/о +13.3 +11.5 89 +12 +12 тепло 1014.6 1010.6
21 12.09 ЮЗ 4 35 км 8/5 1500 м
[Ac und Cs]
+13.7 +11.5 87 +12 +12 тепло 1014.2 1010.2
22 12.09 ЮЗ 4 35 км н/о +14.2 +11.9 86 +13 +13 тепло 1013.8 1009.8
23 12.09 ЮЗ 3 35 км н/о +14.3 +11.9 85 +13 +13 тепло 1013.5 1009.5
00 13.09 ЮЗ 3 35 км {ливн. осадки} 6/6 600 м
[Cb cap As op Ci sp]
+14.3 +13.2 93 +13 +13 тепло 1013.2 1009.2
01 13.09 ЮЗ 3 35 км н/о +13.9 +11.9 88 +13 +13 тепло 1012.7 1008.7
02 13.09 ЮЗ 3 30 км н/о +14.0 +12.7 92 +13 +13 тепло 1012.1 1008.2 0.1
03 13.09 З 5 12 км ливневой дождь 10/10 300 м
[Cb cap As trans Cs]
+13.4 +13.2 99 +11 +11 тепло 1012.1 1008.1 2
04 13.09 ЮЗ 3 24 км н/о +13.1 +12.6 97 +12 +12 тепло 1011.4 1007.4 0.2
05 13.09 ЮЗ 4 12 км н/о +13.0 +12.1 94 +11 +11 тепло 1011.3 1007.3 0.5
06 13.09 ЮЗ 2 18 км слаб. ливневой дождь 10/10 100 м
[Sc Cs]
+12.8 +12.4 97 +12 +13 тепло 1011.1 1007.1 +12.4 +14.5 1
07 13.09 ЮЗ 4 35 км н/о +13.2 +11.6 90 +11 +11 тепло 1010.6 1006.6 0.2
08 13.09 ЮЗ 3 30 км н/о +13.4 +12.4 94 +12 +12 тепло 1010.5 1006.5 1
09 13.09 ЮЗ 3 11 км слаб. ливневой дождь 9/8 200 м
[Sc Cs]
+13.5 +12.4 93 +12 +12 по сезону 1010.2 1006.2 2
10 13.09 ЮЗ 4 35 км н/о +14.6 +13.0 90 +13 +13 тепло 1009.4 1005.5
11 13.09 З 4 35 км н/о +14.9 +12.7 87 +14 +14 тепло 1009.3 1005.4 0.1
12 13.09 СЗ 3 17 км ливневой дождь 9/8 300 м
[Cb cap As trans Cc]
+13.1 +12.4 96 +12 +12 по сезону 1009.2 1005.3 0.2
13 13.09 С 2 35 км н/о +13.0 +10.5 85 +12 +12 тепло 1009.5 1005.5 0.2
14 13.09 З 2 35 км н/о +13.8 +11.1 84 +13 +13 тепло 1008.9 1004.9
15 13.09 СЗ 2 35 км {ливн. осадки} 5/3 300 м
[Cb cap As op]
+13.9 +12.4 91 +13 +13 по сезону 1009.7 1005.8 0.2
16 13.09 СЗ 3 9000 м н/о +10.9 +9.3 90 +9 +9 тепло 1010.5 1006.5 0.8
17 13.09 З 2 35 км н/о +11.2 +9.2 87 +10 +10 по сезону 1011.4 1007.4 0.7
18 13.09 СЗ 4 35 км {ливн. осадки} 5/4 600 м
[Cb cap As op Ci ing]
+12.3 +10.6 89 +10 +10 по сезону 1012.3 1008.2 +10.6 +16.5 2
19 13.09 СЗ 4 35 км н/о +12.5 +6.8 68 +11 +11 тепло 1012.9 1008.9
20 13.09 З 3 35 км н/о +11.6 +6.9 73 +10 +10 тепло 1013.5 1009.5
21 13.09 З 3 35 км 4/4 600 м
[St As op Cs]
+11.9 +10.6 92 +10 +10 по сезону 1013.7 1009.7
22 13.09 З 3 35 км н/о +12.7 +7.9 73 +11 +11 тепло 1013.9 1009.9
23 13.09 З 4 35 км н/о +11.0 +6.4 73 +9 +9 тепло 1014.3 1010.3 0.3
00 14.09 З 1 35 км в посл. час гроза {ливн. осадки} 5/3 300 м
[Cb cap As op]
+9.9 +9.7 99 +9 +9 по сезону 1014.6 1010.5 0.4
01 14.09 З 2 35 км н/о +11.7 +7.1 73 +11 +11 тепло 1014.8 1010.8
02 14.09 З 3 35 км н/о +11.6 +5.4 66 +10 +10 тепло 1015.1 1011.1
03 14.09 З 2 35 км 3/3 600 м
[Cu Sc As op Ci ing]
+11.3 +9.7 90 +10 +10 по сезону 1015.2 1011.2
04 14.09 З 2 35 км н/о +10.1 +6.5 78 +9 +9 тепло 1015.5 1011.4
05 14.09 З 1 35 км н/о +10.1 +7.1 82 +10 +10 тепло 1015.6 1011.5
06 14.09 СЗ 3 35 км 5/5 600 м
[Cu Sc Ac trans Ci ing]
+13.2 +8.8 75 +12 +13 тепло 1016.0 1012.0 +8.8 +13.2
07 14.09 СЗ 4 35 км н/о +13.7 +7.4 66 +12 +12 тепло 1016.4 1012.4
08 14.09 СЗ 4 35 км н/о +13.8 +6.9 63 +12 +12 тепло 1016.7 1012.7
09 14.09 З 6 35 км 8/8 600 м
[Cb cap As op Cs]
+14.8 +8.8 67 +13 +14 тепло 1016.9 1012.9
10 14.09 З 5 35 км н/о +14.3 +6.6 60 +13 +13 тепло 1016.8 1012.8
11 14.09 З 4 35 км н/о +13.8 +7.1 64 +12 +12 по сезону 1016.7 1012.7
12 14.09 З 5 35 км в посл. час ливневой дождь 6/6 600 м
[Cb cap Ac trans]
+14.3 +8.8 69 +13 +14 по сезону 1016.6 1012.6 0.9
13 14.09 З 6 35 км н/о +14.3 +5.8 57 +13 +13 тепло 1016.7 1012.7
14 14.09 З 6 35 км н/о +14.1 +5.9 58 +12 +12 тепло 1017.0 1013.0
15 14.09 З 6 35 км 8/8 1000 м
[Cu Sc Ac lent]
+12.8 +8.8 77 +11 +11 по сезону 1017.1 1013.1
16 14.09 З 5 35 км н/о +12.6 +4.6 58 +11 +11 тепло 1017.3 1013.2
17 14.09 З 4 35 км н/о +12.1 +4.4 59 +10 +10 по сезону 1017.3 1013.2
18 14.09 З 3 35 км 8/6 1000 м
[Cu Sc Ac trans Cc]
+11.5 +11.3 99 +10 +10 по сезону 1017.5 1013.4 +11.3 +15.3
19 14.09 З 3 35 км н/о +11.5 +4.7 63 +10 +10 тепло 1017.4 1013.4
20 14.09 З 2 35 км н/о +11.0 +5.0 66 +10 +10 тепло 1016.9 1012.8
21 14.09 Ю 1 35 км 5/3 600 м
[St Ac trans Ci ing]
+8.5 +8.5 100 +8 +8 по сезону 1016.3 1012.2
22 14.09 Ю 2 35 км н/о +7.7 +5.1 84 +6 +6 тепло 1015.4 1011.3
23 14.09 Ю 2 35 км н/о +7.7 +5.7 87 +6 +6 по сезону 1014.3 1010.2
00 15.09 Ю 3 35 км 6/1
[Ac cuf Ci ing]
+7.9 +7.4 97 +5 +5 по сезону 1013.5 1009.4
01 15.09 Ю 3 11 км н/о +8.5 +7.6 94 +6 +6 по сезону 1012.3 1008.2 0.5
02 15.09 Ю 2 17 км н/о +8.3 +7.7 96 +6 +6 по сезону 1010.6 1006.6 1
03 15.09 Ю 3 11 км слаб. дождь 10/10 600 м
[As op Ci ing]
+8.7 +7.4 92 +6 +6 по сезону 1008.5 1004.4 3
04 15.09 Ю 4 10 км н/о +9.8 +9.4 97 +7 +7 тепло 1007.1 1003.1 1
05 15.09 Ю 4 7000 м н/о +9.9 +9.6 98 +7 +7 по сезону 1004.6 1000.6 2
06 15.09 Ю 4 11 км дождь 10/10 200 м
[Sc As trans]
+10.4 +7.4 82 +8 +8 по сезону 1002.0 998.0 +7.4 +12.0 6
07 15.09 ЮЗ 4 11 км н/о +10.6 +9.9 95 +8 +8 по сезону 1000.5 996.5 2
08 15.09 ЮЗ 5 17 км н/о +11.2 +10.4 95 +8 +8 по сезону 998.6 994.7 0.6
09 15.09 Ю 5-9
{10}
19 км слаб. дождь 10/10 100 м
[Sc Cs]
+11.1 +7.4 78 +8 +9 по сезону 996.3 992.4 +7.4 +11.3 3
10 15.09 ЮЗ 5 10 км н/о +11.6 +11.2 97 +9 +9 по сезону 994.7 990.7 0.7
11 15.09 ЮЗ 6 6000 м н/о +13.1 +12.2 94 +11 +11 по сезону 993.0 989.0 0.9
12 15.09 ЮЗ 7 8000 м сильн. дождь 10/10 200 м
[Sc Cs]
+13.3 +7.7 69 +11 +11 по сезону 991.5 987.6 3
13 15.09 З 7 35 км н/о +14.1 +12.0 87 +12 +12 тепло 991.6 987.7 2
14 15.09 З 6 35 км н/о +13.6 +9.0 74 +11 +11 по сезону 991.9 988.0
15 15.09 З 6 21 км ливневой дождь 8/6 600 м
[Cb cap As op Ci fib]
+12.5 +8.7 78 +10 +10 по сезону 991.9 988.0 2
16 15.09 З 4 35 км н/о +12.5 +9.0 79 +11 +11 тепло 992.1 988.2
17 15.09 З 4 25 км н/о +11.2 +9.2 87 +9 +9 по сезону 992.7 988.7 0.5
18 15.09 З 4 35 км в посл. час ливневой дождь 4/4 600 м
[Cb cap As op Ci ing]
+12.2 +10.4 89 +10 +10 по сезону 992.4 988.4 +10.4 +14.2 0.5
19 15.09 З 5 35 км н/о +13.1 +7.2 67 +11 +11 тепло 992.2 988.3
20 15.09 З 4 35 км н/о +12.9 +6.9 67 +11 +11 тепло 992.0 988.1
21 15.09 СЗ 2 35 км 5/5 600 м
[St As op Cs]
+12.2 +10.9 92 +11 +11 тепло 992.0 988.1
22 15.09 СЗ 3 35 км н/о +12.0 +7.1 72 +10 +10 тепло 991.8 987.8
23 15.09 З 3 35 км н/о +10.5 +8.6 88 +8 +8 по сезону 991.7 987.8 0.5
00 16.09 З 1 35 км в посл. час ливневой дождь 8/8 600 м
[Cb cap As op Cs]
+10.0 +10.0 100 +9 +9 по сезону 991.5 987.5 0.7
01 16.09 З 4 35 км н/о +12.4 +8.4 77 +10 +10 тепло 991.0 987.1
02 16.09 З 3 35 км н/о +12.5 +8.6 77 +11 +11 тепло 990.9 987.0
03 16.09 З 3 35 км 8/5 600 м
[St As op Cs]
+12.0 +10.0 88 +10 +10 по сезону 990.6 986.6
04 16.09 ЮЗ 2 35 км н/о +11.7 +9.2 85 +11 +11 тепло 990.5 986.5
05 16.09 З 4 35 км н/о +12.5 +8.9 79 +11 +11 тепло 990.2 986.3
06 16.09 З 3 35 км слаб. ливневой дождь 9/5 600 м
[Cb cap As op Ci sp]
+9.5 +9.3 99 +7 +7 по сезону 990.8 986.9 +9.3 +13.5 1
07 16.09 З 4 35 км н/о +11.6 +9.6 88 +9 +9 по сезону 991.3 987.4
08 16.09 З 3 35 км н/о +12.7 +9.7 82 +11 +11 по сезону 991.9 988.0
09 16.09 З 4 35 км в посл. час ливневой дождь 8/4 300 м
[Cu Sc As trans Cs]
+12.5 +9.3 81 +11 +11 по сезону 992.5 988.6 0.4
10 16.09 З 4 35 км н/о +13.6 +9.8 78 +12 +12 по сезону 993.0 989.1
11 16.09 З 6 35 км н/о +13.5 +9.0 74 +11 +11 по сезону 993.5 989.6
12 16.09 З 6 35 км {ливн. осадки} 9/8 600 м
[Cu Sc As op Cs]
+14.0 +9.3 73 +12 +12 по сезону 993.8 989.9
13 16.09 З 6 35 км н/о +13.8 +8.1 68 +12 +12 тепло 994.1 990.2
14 16.09 СЗ 5 35 км н/о +13.8 +8.2 69 +12 +12 тепло 994.3 990.4
15 16.09 З 3 20 км ливневой дождь 9/9 300 м
[Cb cap As op]
+10.2 +9.3 94 +8 +8 прохладно 995.0 991.1 0.8
16 16.09 З 1 22 км н/о +10.2 +9.6 96 +10 +10 тепло 995.3 991.4 1
17 16.09 З 2 35 км н/о +9.9 +9.0 94 +8 +8 по сезону 995.7 991.7
18 16.09 З 2 35 км в посл. час ливневой дождь 9/9 600 м
[Cu Sc As op Ci sp]
+10.2 +9.5 95 +9 +9 по сезону 995.9 992.0 +9.5 +14.7 2
19 16.09 С 2 35 км н/о +10.2 +7.8 85 +9 +9 тепло 996.4 992.4
20 16.09 С 2 35 км н/о +9.8 +8.3 90 +8 +8 по сезону 996.7 992.7 0.1
21 16.09 С 3 35 км в посл. час ливневой дождь 9/9 600 м
[St As op Cc]
+10.0 +9.7 98 +8 +8 по сезону 996.9 992.9 0.1
22 16.09 С 2 35 км н/о +10.2 +7.2 82 +9 +9 тепло 997.1 993.1
23 16.09 СЗ 2 35 км н/о +9.7 +7.5 86 +8 +8 тепло 997.3 993.3 0.1
00 17.09 СЗ 2 35 км {ливн. осадки} 8/5 300 м
[Cu Sc As trans Cs]
+9.3 +9.3 100 +8 +8 по сезону 997.5 993.5 0.1
01 17.09 СЗ 2 35 км н/о +8.9 +5.6 80 +7 +7 тепло 997.4 993.4
02 17.09 З 1 35 км н/о +7.9 +4.5 79 +7 +7 по сезону 997.3 993.3
03 17.09 З 1 35 км 6/5 600 м
[St As op Cs]
+7.6 +7.4 99 +7 +7 по сезону 997.3 993.3
05 17.09 ЮЗ 1 35 км н/о +5.6 +4.5 93 +4 +4 по сезону 997.5 993.5
06 17.09 З 1 27 км 4/4 600 м
[Cu Sc Ci fib]
+8.8 +4.3 73 +8 +9 по сезону 997.4 993.4 +4.3 +10.4

 

Местоположение метеостанции Таллин (Эстония): широта 59.47 долгота 24.82 высота над уровнем моря 34 м.

В архиве по умолчанию представлена погода в Таллине за последнюю неделю. Архивные данные за месяц целиком и за предыдущие месяцы, начиная с января 2011 года, Вы можете получить, выбрав интересующий диапазон дат из раскрывающегося списка и нажав кнопку "Ввод!".


*Определитесь, кто Вы:
робот инопланетянин человек

Внимание! Время в таблицах - всемирное. Для получения местного времени необходимо прибавить поправку, которая равна 2 ч.

Смотрите также архив погоды в соседних городах и на ближайших метеорологических станциях:

Погода в Пакри (Эстония) (46 км)
Погода на Хельсинском маяке (Финляндия) (54 км)
Погода в Куусику (Эстония) (56 км)
Погода на Острове Мякилюото (Финляндия) (57 км)
Погода на Острове Багаскар (Финляндия) (68 км)
Погода на Острове Хармая (Финляндия) (71 км)
Погода на Маяке Kalbadagrund (Финляндия) (73 км)
Погода в Эспо Тапиола (Финляндия) (79 км)
Погода в Хельсинки Кайсаниеми (Финляндия) (79 км)
Погода на Юссаро (Финляндия) (80 км)

Пояснения к столбцам:

Ветер - указаны скорость ветра в м/с - средняя за 10 мин, порывы в срок и между сроками (в фигурных скобках) и направление, откуда дует ветер: С - северный, СВ - северо-восточный, В - восточный, ЮВ - юго-восточный, Ю - южный, ЮЗ - юго-западный, З - западный, СЗ - северо-западный.
Видимость - горизонтальная дальность видимости в метрах или километрах. При видимости от 1 до 10 км при отсутствии осадков обычно наблюдается дымка, при ухудшении видимости до 1 км и менее - туман. В сухую погоду видимость может ухудшаться дымом, пылью или мглою.
Явления - указаны атмосферные явления, наблюдавшиеся в срок или в последний час перед сроком; фигурными скобками обозначены явления, наблюдавшиеся между сроками (за 1-3 часа до срока); квадратными скобками обозначены град или гололедные отложения с указанием их диаметра в мм.
Облачность - указаны через наклонную черту общая и нижняя облачность в баллах и высота нижней границы облаков в метрах; квадратными скобками обозначены формы облаков: Ci - перистые, Cs - перисто-слоистые, Cc - перисто-кучевые, Ac - высококучевые, As - высокослоистые, Sc - слоисто-кучевые, Ns - слоисто-дождевые, Cu - кучевые, Cb - кучево-дождевые. Подробнее классификацию облаков см. в Атласе облаков (PDF).
T - Температура воздуха - температура, измеренная на высоте 2 м над землей.
Td - Температура точки росы - температура, при понижении до которой содержащийся в воздухе водяной пар достигнет насыщения.
f - Относительная влажность воздуха - влажноcть воздуха, измеренная на высоте 2 м над землей.
Te - Эффективная температура - температура, которую ощущает одетый по сезону человек в тени. Характеристика душности погоды. При расчете учитывается влияние влажности воздуха и скорости ветра на теплоощущения человека.
Tes - Эффективная температура на солнце - температура, которую ощущает человек, с поправкой на солнечный нагрев. Характеристика знойности погоды. Зависит от высоты солнца над горизонтом, облачности и скорости ветра. Ночью, в пасмурную погоду, а также при ветре 12 м/с и более поправка равна нулю.
P - Атмосферное давление - приведенное к уровню моря атмосферное давление.
Po - Атмосферное давление - измеренное на уровне метеостанции атмосферное давление.
Tmin - Минимальная температура - минимум температуры воздуха на высоте 2 м над землей.
Tmax - Максимальная температура - максимум температуры воздуха на высоте 2 м над землей.
R - Количество осадков - Количество выпавших осадков за период времени, мм. При наведении курсора мыши на число - период времени, за который выпало указанное количество осадков.
R24 - Количество осадков - Количество выпавших осадков за 24 часа, мм.
S - Снежный покров - Высота снежного покрова, см. При наведении курсора мыши на число - состояние снежного покрова и степень покрытия местности в баллах.